Janesville, WI

1:16 AM CDT on August 22, 2017 (GMT -0500)
Rock County

Weather History for KJVL - November, 2013

Change the Weather History Date:

Wednesday, November 6, 2013

  Actual Average Record
Temperature  
Mean Temperature 44 °F -  
Max Temperature 55 °F 51 °F 69 °F (2001)
Min Temperature 32 °F 33 °F 19 °F (1991)
Degree Days  
Heating Degree Days 22    
Moisture  
Dew Point 39 °F    
Average Humidity 85    
Maximum Humidity 100    
Minimum Humidity 61    
Precipitation  
Precipitation 0.10 in - - ()
Sea Level Pressure  
Sea Level Pressure 29.95 in    
Wind  
Wind Speed 14 mph (West)    
Max Wind Speed 20 mph    
Max Gust Speed 26 mph    
Visibility 9 miles    
Events Rain    
Averages and records for this station are not official NWS values.
T = Trace of Precipitation, MM = Missing Value Source: NWS Daily Summary

Daily Weather History Graph

Daily Weather History Graph

Search for Another Location

Airport or City:

Trip Planner

Search our weather history database for the weather conditions in past years. The results will help you decide how hot, cold, wet, or windy it might be!

Date:

Astronomy

Nov. 06, 2013 Rise Set
Actual Time 6:36 AM CST 4:42 PM CST
Civil Twilight 6:06 AM CST 5:12 PM CST
Nautical Twilight 5:33 AM CST 5:45 PM CST
Astronomical Twilight 5:00 AM CST 6:18 PM CST
Moon 9:53 AM CST (11/6) 7:45 PM CST (11/6)
Length of Visible Light 11h 05m
Length of Day
10h 05m
Waxing Crescent, 14% of the Moon is Illuminated
Nov 6
Waxing Crescent
Nov 9
First Quarter
Nov 17
Full
Nov 25
Last Quarter
Dec 2
New

Hourly Weather History & Observations

Time (CST) Temp. Windchill Dew Point Humidity Pressure Visibility Wind Dir Wind Speed Gust Speed Precip Events Conditions
12:35 AM 53.6 °F - 50.0 °F 88% 29.87 in 7.0 mi South 15.0 mph 24.2 mph 0.04 in   Overcast
12:55 AM 53.6 °F - 50.0 °F 88% 29.86 in 7.0 mi South 15.0 mph 23.0 mph 0.06 in Rain Rain
1:15 AM 53.6 °F - 50.0 °F 88% 29.85 in 7.0 mi South 15.0 mph 24.2 mph 0.02 in Rain Light Rain
1:55 AM 53.6 °F - 51.8 °F 94% 29.83 in 10.0 mi South 17.3 mph 24.2 mph 0.03 in   Overcast
2:15 AM 53.6 °F - 51.8 °F 94% 29.81 in 10.0 mi SSW 15.0 mph 20.7 mph N/A Rain Light Rain
2:35 AM 53.6 °F - 51.8 °F 94% 29.81 in 7.0 mi SSW 12.7 mph 19.6 mph N/A   Overcast
2:55 AM 53.6 °F - 51.8 °F 94% 29.80 in 10.0 mi SSW 19.6 mph 24.2 mph N/A   Overcast
3:15 AM 53.6 °F - 51.8 °F 94% 29.79 in 7.0 mi SSW 17.3 mph 21.9 mph N/A Rain Light Rain
3:35 AM 53.6 °F - 51.8 °F 94% 29.78 in 10.0 mi SSW 16.1 mph 23.0 mph N/A   Overcast
3:55 AM 53.6 °F - 51.8 °F 94% 29.78 in 7.0 mi SSW 13.8 mph 20.7 mph N/A   Overcast
4:15 AM 53.6 °F - 51.8 °F 94% 29.78 in 7.0 mi SSW 13.8 mph 23.0 mph N/A Rain Light Rain
4:35 AM 53.6 °F - 51.8 °F 94% 29.78 in 7.0 mi SSW 11.5 mph 18.4 mph 0.01 in Rain Light Rain
5:45 AM 55.4 °F - 51.8 °F 88% 29.76 in 5.0 mi SSW 19.6 mph 25.3 mph N/A Rain Rain
6:45 AM 55.4 °F - 53.6 °F 94% 29.72 in 6.0 mi South 17.3 mph 23.0 mph N/A Rain Light Rain
7:45 AM 55.4 °F - 53.6 °F 94% 29.73 in 6.0 mi South 17.3 mph 23.0 mph N/A Rain Light Rain
8:45 AM 44.6 °F 37.4 °F 42.8 °F 93% 29.79 in 5.0 mi WNW 16.1 mph 21.9 mph N/A Rain Light Rain
9:45 AM 41.0 °F 32.8 °F 39.2 °F 93% 29.81 in 5.0 mi NW 16.1 mph 21.9 mph N/A Rain Light Rain
10:45 AM 41.0 °F 32.5 °F 39.2 °F 93% 29.88 in 6.0 mi NW 17.3 mph 23.0 mph N/A   Light Drizzle
11:45 AM 39.2 °F 30.2 °F 39.2 °F 100% 29.89 in 10.0 mi NW 17.3 mph 23.0 mph N/A   Overcast
12:45 PM 39.2 °F 29.8 °F 37.4 °F 93% 29.92 in 10.0 mi NW 18.4 mph 26.5 mph N/A   Overcast
1:45 PM 39.2 °F 31.6 °F 37.4 °F 93% 29.95 in 10.0 mi NW 12.7 mph 19.6 mph N/A   Overcast
2:45 PM 42.8 °F 36.2 °F 37.4 °F 81% 29.97 in 10.0 mi NW 12.7 mph - N/A   Overcast
3:45 PM 44.6 °F 39.2 °F 35.6 °F 71% 30.00 in 10.0 mi NW 10.4 mph - N/A   Mostly Cloudy
4:45 PM 42.8 °F 38.6 °F 35.6 °F 76% 30.04 in 10.0 mi WNW 6.9 mph - N/A   Scattered Clouds
6:45 PM 39.2 °F 31.6 °F 26.6 °F 61% 30.10 in 10.0 mi WNW 12.7 mph - N/A   Clear
7:45 PM 37.4 °F 30.8 °F 26.6 °F 65% 30.11 in 10.0 mi WNW 9.2 mph - N/A   Clear
8:15 PM 33.8 °F 27.7 °F 26.6 °F 75% 30.11 in 10.0 mi WNW 6.9 mph - N/A   Clear
8:35 PM 33.8 °F 27.0 °F 26.6 °F 75% 30.12 in 10.0 mi WNW 8.1 mph - N/A   Clear
8:55 PM 33.8 °F 28.6 °F 26.6 °F 75% 30.12 in 10.0 mi WNW 5.8 mph - N/A   Clear
9:15 PM 33.8 °F 28.6 °F 26.6 °F 75% 30.13 in 10.0 mi WNW 5.8 mph - N/A   Clear
9:35 PM 32.0 °F 25.6 °F 26.6 °F 80% 30.14 in 10.0 mi WNW 6.9 mph - N/A   Clear
9:55 PM 32.0 °F 25.6 °F 26.6 °F 80% 30.15 in 10.0 mi WNW 6.9 mph - N/A   Clear
10:15 PM 32.0 °F 24.8 °F 26.6 °F 80% 30.15 in 10.0 mi WNW 8.1 mph - N/A   Clear
10:35 PM 32.0 °F 26.4 °F 26.6 °F 80% 30.15 in 10.0 mi WNW 5.8 mph - N/A   Clear
10:55 PM 32.0 °F 24.8 °F 26.6 °F 80% 30.15 in 10.0 mi West 8.1 mph - N/A   Clear
11:15 PM 32.0 °F 24.8 °F 26.6 °F 80% 30.15 in 10.0 mi West 8.1 mph - N/A   Clear
11:35 PM 32.0 °F 24.2 °F 26.6 °F 80% 30.16 in 10.0 mi WNW 9.2 mph - N/A   Clear
11:55 PM 32.0 °F 24.8 °F 26.6 °F 80% 30.16 in 10.0 mi West 8.1 mph - N/A   Clear